Elena Of London — 2COR3 — position and weather

sailwx.info

Track history (hours):
 
Tides and Currents Weather Stations Pressure Air Temp Water Temp Dewpoint Dewpoint Depression Visibility Wind Speed Wind Dir Waves Ship Positions

Elena Of London

Last reported at 2016-Aug-28 04:32 UTC. Time now 2016-Aug-28 05:14 UTC.
Position N 43°49' E 007°47'.

Length 44 m; draft 5.2 m.

Type: Sailing vessel. MMSI: 235074534.

Date/timePositionNaut miles runAvg speedWind from/ knotsBaromVisibWave heightAir tempDewpointWater temp
2016-Aug-28 04:32N 43°49' E 007°47'0 0.0
2016-Aug-28 03:27N 43°49' E 007°47'0 0.0
2016-Aug-28 00:21N 43°49' E 007°47'0 0.0
2016-Aug-27 23:32N 43°49' E 007°47'0 0.0
2016-Aug-27 22:32N 43°49' E 007°47'0 0.0
2016-Aug-27 21:27N 43°49' E 007°47'0 0.0
2016-Aug-27 20:29N 43°49' E 007°47'0 0.0
2016-Aug-27 19:33N 43°49' E 007°47'0 0.0
2016-Aug-27 18:34N 43°49' E 007°47'0 0.0
2016-Aug-27 17:33N 43°49' E 007°47'0 0.0
2016-Aug-27 16:33N 43°49' E 007°47'2 1.7
2016-Aug-27 15:33N 43°47' E 007°47'31 9.9
2016-Aug-27 12:27N 43°20' E 008°08'910.2
2016-Aug-27 11:34N 43°12' E 008°14'10 9.9
2016-Aug-27 10:33N 43°04' E 008°20'10 9.7
2016-Aug-27 09:33N 42°56' E 008°28'10 9.6
2016-Aug-27 08:33N 42°48' E 008°35'16 3.9
2016-Aug-27 04:28N 42°34' E 008°46'0 0.0
2016-Aug-27 03:31N 42°34' E 008°46'0 0.0
2016-Aug-26 22:28N 42°34' E 008°46'0 0.0
2016-Aug-26 21:22N 42°34' E 008°46'0 0.0
2016-Aug-26 20:28N 42°34' E 008°46'0 0.1
2016-Aug-26 18:26N 42°34' E 008°46'0 0.0
2016-Aug-26 17:29N 42°34' E 008°46'0 0.0
2016-Aug-26 16:33N 42°34' E 008°46'8 8.0
2016-Aug-26 15:33N 42°40' E 008°53'8 7.6
2016-Aug-26 14:33N 42°43' E 009°03'10 9.6
2016-Aug-26 13:33N 42°45' E 009°15'2 0.1
2016-Aug-25 14:22N 42°47' E 009°15'6 6.9
2016-Aug-25 13:32N 42°45' E 009°08'1 0.8
2016-Aug-25 12:33N 42°44' E 009°08'0 0.0
2016-Aug-25 11:33N 42°44' E 009°08'19 0.9
2016-Aug-24 14:27N 42°36' E 008°44'3 3.4
2016-Aug-24 13:33N 42°36' E 008°48'0 0.0
2016-Aug-24 12:33N 42°36' E 008°48'0 0.0
2016-Aug-24 11:33N 42°36' E 008°48'  
Track history (hours):
 
Tides and Currents Weather Stations Pressure Air Temp Water Temp Dewpoint Dewpoint Depression Visibility Wind Speed Wind Dir Waves Ship Positions

Elena Of London

Last reported at 2016-Aug-28 04:32 UTC. Time now 2016-Aug-28 05:14 UTC.
Position N 43°49' E 007°47'.

Length 44 m; draft 5.2 m.

Type: Sailing vessel. MMSI: 235074534.

Date/timePositionNaut miles runAvg speedWind from/ knotsBaromVisibWave heightAir tempDewpointWater temp
2016-Aug-28 04:32N 43°49' E 007°47'0 0.0
2016-Aug-28 03:27N 43°49' E 007°47'0 0.0
2016-Aug-28 00:21N 43°49' E 007°47'0 0.0
2016-Aug-27 23:32N 43°49' E 007°47'0 0.0
2016-Aug-27 22:32N 43°49' E 007°47'0 0.0
2016-Aug-27 21:27N 43°49' E 007°47'0 0.0
2016-Aug-27 20:29N 43°49' E 007°47'0 0.0
2016-Aug-27 19:33N 43°49' E 007°47'0 0.0
2016-Aug-27 18:34N 43°49' E 007°47'0 0.0
2016-Aug-27 17:33N 43°49' E 007°47'0 0.0
2016-Aug-27 16:33N 43°49' E 007°47'2 1.7
2016-Aug-27 15:33N 43°47' E 007°47'31 9.9
2016-Aug-27 12:27N 43°20' E 008°08'910.2
2016-Aug-27 11:34N 43°12' E 008°14'10 9.9
2016-Aug-27 10:33N 43°04' E 008°20'10 9.7
2016-Aug-27 09:33N 42°56' E 008°28'10 9.6
2016-Aug-27 08:33N 42°48' E 008°35'16 3.9
2016-Aug-27 04:28N 42°34' E 008°46'0 0.0
2016-Aug-27 03:31N 42°34' E 008°46'0 0.0
2016-Aug-26 22:28N 42°34' E 008°46'0 0.0
2016-Aug-26 21:22N 42°34' E 008°46'0 0.0
2016-Aug-26 20:28N 42°34' E 008°46'0 0.1
2016-Aug-26 18:26N 42°34' E 008°46'0 0.0
2016-Aug-26 17:29N 42°34' E 008°46'0 0.0
2016-Aug-26 16:33N 42°34' E 008°46'8 8.0
2016-Aug-26 15:33N 42°40' E 008°53'8 7.6
2016-Aug-26 14:33N 42°43' E 009°03'10 9.6
2016-Aug-26 13:33N 42°45' E 009°15'2 0.1
2016-Aug-25 14:22N 42°47' E 009°15'6 6.9
2016-Aug-25 13:32N 42°45' E 009°08'1 0.8
2016-Aug-25 12:33N 42°44' E 009°08'0 0.0
2016-Aug-25 11:33N 42°44' E 009°08'19 0.9
2016-Aug-24 14:27N 42°36' E 008°44'3 3.4
2016-Aug-24 13:33N 42°36' E 008°48'0 0.0
2016-Aug-24 12:33N 42°36' E 008°48'0 0.0
2016-Aug-24 11:33N 42°36' E 008°48'  

Dump ship's entire track history